Location: Old Broadwell Mill Observatory
(33.8015°N, 85.8137°W)
Time: 09:52:12
(UTC-05:00)

Gurwin Techsat 1B - Visible Passes

Search period start: 30 August 2016 00:00
Search period end: 09 September 2016 00:00
Orbit: 811 x 815 km, 98.6° (Epoch: 30 August)

Date Brightness Start Highest point End Pass type
(mag) Time Alt. Az. Time Alt. Az. Time Alt. Az.
30 Aug 10.7 02:34:34 10° NNE 02:36:28 22° NNE 02:36:28 22° NNE visible
30 Aug 10.7 04:16:31 10° NNW 04:17:39 13° NW 04:17:39 13° NW visible
31 Aug 11.2 02:12:06 10° NNE 02:13:17 16° NE 02:13:17 16° NE visible
31 Aug 10.5 03:52:34 10° NNW 03:54:29 18° NW 03:54:29 18° NW visible
01 Sep 11.5 01:50:03 10° NE 01:50:08 10° NE 01:50:08 10° NE visible
01 Sep 10.4 03:29:12 10° N 03:31:20 22° NNW 03:31:20 22° NNW visible
02 Sep 10.5 03:06:09 10° N 03:08:11 24° N 03:08:11 24° N visible
03 Sep 10.8 02:43:20 10° NNE 02:45:01 21° NNE 02:45:01 21° NNE visible
04 Sep 11.2 02:20:46 10° NNE 02:21:51 16° NNE 02:21:51 16° NNE visible
04 Sep 10.7 04:01:44 10° NNW 04:03:03 15° NW 04:03:03 15° NW visible
05 Sep 11.5 01:58:31 10° NE 01:58:41 11° NE 01:58:41 11° NE visible
05 Sep 10.6 03:38:13 10° N 03:39:53 19° NNW 03:39:53 19° NNW visible
06 Sep 10.6 03:15:03 10° N 03:16:44 20° N 03:16:44 20° N visible
07 Sep 10.9 02:52:08 10° NNE 02:53:34 19° NNE 02:53:34 19° NNE visible
08 Sep 11.2 02:29:27 10° NNE 02:30:24 15° NNE 02:30:24 15° NNE visible
08 Sep 10.9 04:11:03 10° NNW 04:11:36 12° NW 04:11:36 12° NW visible
